Regional Weather Roundup
Issued by NWS

Home | Current Version | Previous Version | Graphics & Text | Print | Product List | Glossary On
Versions: 1 2 3 4 5 6 7 8 9 10 11 12 13 14 15 16 17 18 19 20 21 22 23 24 25 26 27 28 29 30 31 32 33 34 35 36 37 38 39 40 41 42 43 44 45 46 47 48 49 50
000
ASUS45 KTFX 192319
RWRMT
MONTANA HOURLY WEATHER ROUNDUP
NATIONAL WEATHER SERVICE GREAT FALLS MT
419 PM MST FRI DEC 19 2014

NOTE: "FAIR" INDICATES FEW OR NO CLOUDS BELOW 12000 FEET WITH NO
SIGNIFICANT WEATHER AND/OR OBSTRUCTIONS TO VISIBILITY.

* THESE STATIONS ARE NOT UNDER NWS QUALITY CONTROL. THEY DO NOT
   REPORT WEATHER SUCH AS PRECIPITATION OR FOG.

MTZ001>007-043-200000-
WEST OF THE DIVIDE
CITY           SKY/WX    TMP DP  RH WIND       PRES   REMARKS
KALISPELL      LGT RAIN  36  34  92 S10       29.88R WCI  29
MISSOULA       FOG       32  30  92 W3        29.93R VSB 2 1/2
BUTTE          LGT SNOW  36  27  70 CALM      29.90R VSB 3
MULLAN PASS    LGT SNOW  30  27  89 VRB6      29.86R VSB M1/4 WCI  24
* ESSEX        N/A       34  33  96 N/A        N/A
* EUREKA APT   CLOUDY    39  36  89 SE9       29.85R WCI  33
* HAMILTON APT CLOUDY    39  34  82 S12       29.92R WCI  32
* LIBBY APT    CLOUDY   N/A N/A N/A CALM      29.90R
* LINCOLN      N/A       35  32  89 S3G8       N/A
* LOOKOUT PASS N/A       32  32 100 N4         N/A
* POLSON       N/A       35  35 100 SE1        N/A
* RONAN APT    CLOUDY    34  34 100 N/A        N/A
* SEELEY LAKE  N/A       32  30  92 N/A        N/A
* THOMP F APT  CLOUDY    27  26  96 SE7G17     N/A   WCI  19
* YAAK HILL    N/A       38  36  93 VRB1       N/A
$$

MTZ008-052>055-200000-
SOUTHWEST MONTANA
CITY           SKY/WX    TMP DP  RH WIND       PRES   REMARKS
BOZEMAN        CLOUDY    36  25  64 CALM      29.89S
DILLON         CLOUDY    36  27  70 E5        29.92R WCI  32
* W YELLOWSTON PTSUNNY   31  26  82 SW3G8      N/A
* THREE FORKS  PTSUNNY   43  43 100 SW21G33    N/A
* BOULDER HILL N/A       35  22  59 SW8        N/A   WCI  28
* MONIDA PASS  N/A       26  26 100 SE20       N/A   WCI  12
* RAYNOLDS PAS N/A       29   9  43 SE16G22    N/A   WCI  17
* WHITEHALL    N/A       41  29  62 SW8G17     N/A
* WISE RIVER   N/A       33  31  92 W2G9       N/A
$$

MTZ009>010-012-014-046-048-049-054-200000-
EAST SLOPES AND CENTRAL MONTANA
CITY           SKY/WX    TMP DP  RH WIND       PRES   REMARKS
CUT BANK       PTSUNNY   37  30  76 W15       29.74S WCI  28
GREAT FALLS    PTSUNNY   43  28  56 SW23      29.78R
HELENA         CLOUDY    37  28  70 CALM      29.86S
MALMSTROM AFB  PTSUNNY   41  30  65 S14       29.80R
* CONRAD       PTSUNNY   39  34  82 CALM       N/A
* DEARBORN     N/A       45  27  49 S12G21     N/A
* EAST GLACIER N/A       36  29  76 W30        N/A   WCI  23
* MONARCH      N/A       40  19  43 SW10G15    N/A   WCI  34
* PENDROY      N/A       38  28  67 NW9        N/A   WCI  32
* ROGERS PASS  N/A       32  29  89 SE9G16     N/A   WCI  24
* SWEET GRASS  N/A       32  29  89 S15        N/A   WCI  22
* WHITE SULPH  N/A       40  25  55 SW9G17     N/A   WCI  34
$$

MTZ011-013-016-021-035-040-045-047-050-051-200000-
NORTH CENTRAL MONTANA
CITY           SKY/WX    TMP DP  RH WIND       PRES   REMARKS
HAVRE          CLOUDY    30  27  89 E7        29.79S WCI  23
LEWISTOWN      CLOUDY    39  27  62 SE3       29.81S
* N BAR RANCH  SUNNY     37  27  67 CALM      29.83S
* CHINOOK      CLOUDY    30  28  92 E6        29.81F WCI  24
* CHESTER      N/A       38  31  76 N1         N/A
* DENTON       N/A       41  29  62 E1         N/A
* GEYSER       N/A       37  25  62 S7         N/A   WCI  32
* JUDITH GAP   N/A       42  26  53 SW12G17    N/A
* LOMA         N/A       39  32  76 NE6        N/A   WCI  35
$$

MTZ017>020-022>027-061-062-200000-
NORTHEAST MONTANA
CITY           SKY/WX    TMP DP  RH WIND       PRES   REMARKS
GLASGOW        SUNNY     30  25  82 E7        29.85F WCI  23
GLENDIVE       SUNNY     34  25  70 S8        29.89S WCI  27
JORDAN         PTCLDY    37  27  67 SW5       29.86R WCI  33
SIDNEY         SUNNY     30  23  75 CALM      29.91S
WOLF POINT     SUNNY     37  27  67 CALM      29.88S
* BEAVER HILL  N/A       39  25  57 SW4        N/A
* CIRCLE       N/A       42  30  63 S2         N/A
* LINDSAY DVD  N/A       39  27  62 W1         N/A
* NAVAJO       N/A       32  28  85 W4         N/A
* PLENTYWOOD A SUNNY     27  25  92 E5        29.88F WCI  21
* POPLAR APT   SUNNY     36  28  73 E3        29.88S
* SACO         N/A       31  26  82 E8         N/A   WCI  24
$$

MTZ028>042-056>058-200000-
SOUTHCENTRAL AND SOUTHEAST MONTANA
CITY           SKY/WX    TMP DP  RH WIND       PRES   REMARKS
BAKER          SUNNY     37  25  62 W5        29.89F WCI  33
BILLINGS       PTSUNNY   37  21  52 SW14      29.87S WCI  28
LIVINGSTON     PTCLDY    43  25  49 SW17G32   29.85S
MILES CITY     PTCLDY    39  25  57 W5        29.88S WCI  35
* FORSYTH APT  PTCLDY    37  25  62 CALM      29.87S
* LAUREL APT   PTSUNNY   39  16  39 S5         N/A   WCI  35
* ROUNDUP APT  CLOUDY    45  21  38 N/A        N/A
* ALZADA       N/A       40  23  51 W2         N/A
* HYSHAM       N/A       38  17  42 W2         N/A
* LAME DEER    N/A       40  19  43 W4         N/A
* REED POINT   N/A       38  23  55 E7         N/A   WCI  33
* ROSCOE HILL  N/A       43  13  29 SW14G24    N/A
$$

REGIONAL REPORTS...DAKOTAS
CITY           SKY/WX    TMP DP  RH WIND       PRES   REMARKS
WILLISTON      FOG       27  25  92 N3        29.91S VSB M1/4
DICKINSON      SUNNY     37  27  67 W3        29.87S
BEACH          SUNNY     36  27  70 CALM      29.90R
CROSBY         FOG       25  25 100 CALM      29.92F VSB M1/4
TIOGA          FOG       25  25 100 CALM      29.94R VSB M1/4
WATFORD CITY   SUNNY     32  28  85 CALM      29.89S
BISMARCK       PTCLDY    34  27  76 NE5       29.94R WCI  29
GRAND FORKS    FOG       28  28 100 S7        30.02R VSB 1 1/4 WCI  21
FARGO          LGT SNOW  30  28  92 S15       30.03R WCI  19
BUFFALO SD     SUNNY     43  23  45 CALM      29.84S
RAPID CITY     PTCLDY    39  25  57 SE5       29.93F WCI  35
$$

REGIONAL REPORTS...WYOMING/IDAHO/WASHINGTON
CITY           SKY/WX    TMP DP  RH WIND       PRES   REMARKS
GILLETTE       PTSUNNY   34  21  59 SW9       29.90S WCI  27
SHERIDAN       PTSUNNY   37  23  57 SE3       29.88S
CODY           PTSUNNY   43  23  45 W18G26    29.89S
YELLOWSTONE LA PTCLDY    27  21  78 W6        30.02F WCI  20
SALMON         CLOUDY    36  28  73 N5        29.97R WCI  32
MULLAN PASS    LGT SNOW  30  27  89 VRB6      29.86S VSB M1/4 WCI  24
SAND POINT     N/A       37  37 100 SW5       29.92R VSB 3    WCI  33
SPOKANE        CLOUDY    41  36  82 SW17      29.92R
$$

REGIONAL REPORTS...ALBERTA
CITY           SKY/WX    TMP DP  RH WIND       PRES   REMARKS
CALGARY        CLOUDY    37  27  67 SW5       29.62R WCI  33
LETHBRIDGE     CLOUDY    39  32  76 SW20      29.68S WCI  29
MEDICINE HAT   CLOUDY    36  30  79 S7        29.71R WCI  30
EDMONTON       PTSUNNY   23  19  85 SE7       29.65S WCI  15
WATERTON GATE  N/A       39  30  70 SW10       N/A   WCI  32
CARDSTON       N/A       41  32  70 SW3        N/A
MILK RIVER     N/A       37  32  82 SW6        N/A   WCI  32
$$

REGIONAL REPORTS...SASKATCHEWAN
CITY           SKY/WX    TMP DP  RH WIND       PRES   REMARKS
SWIFT CURRENT  N/A       30  28  92 S10       29.78S WCI  21
REGINA         FOG       16  14  92 NE6       29.91F WCI   7
VAL MARIE      N/A       23  23 100 NE3        N/A
ASSINIBOIA     N/A       16  14  92 E6         N/A   WCI   7
CORONACH       N/A       25  21  85 SE2        N/A

$$



USA.gov is the U.S. government's official web portal to all federal, state and local government web resources and services.